This demonstration page uses our WeatherBlox Daily Observations layout. Learn more.

Left ArrowRight Arrow

38.20091, -84.87328

Hourly Observations for September 29, 2021

Temp ( °F °C ) Dew Point ( °F °C ) Humidity (%) Winds ( mph kmh ) Pressure ( in mb ) Visibility ( mi km ) Precip ( " mm )
12:53 am 00:53 Clear 66 18.9 64 17.8 93 93 Calm 29.96 1015 10 16 0.00 0.00
1:53 am 01:53 Clear 64 17.8 62 16.7 93 93 Calm 29.96 1015 10 16 0.00 0.00
2:53 am 02:53 Clear 63 17.2 61 16.1 93 93 Calm 29.97 1015 9 14 0.00 0.00
3:15 am 03:15 Clear with Mist and Fog 63 17.2 62 16.7 97 97 Calm 29.98 1015 2 3 0.00 0.00
3:34 am 03:34 Clear with Mist and Fog 62 16.7 61 16.1 96 96 Calm 29.98 1015 1 1 0.00 0.00
3:40 am 03:40 Clear with Mist and Fog 63 17.2 61 16.1 93 93 Calm 29.98 1015 1 2 0.00 0.00
3:48 am 03:48 Clear 63 17 61 16 94 94 Calm 29.98 1015 9 14 0.00 0.00
3:53 am 03:53 Clear 63 17.2 61 16.1 93 93 Calm 29.97 1015 9 14 0.00 0.00
4:53 am 04:53 Clear with Mist and Fog 62 16.7 62 16.7 100 100 SW 5 7 29.98 1015 3 5 0.00 0.00
5:42 am 05:42 Clear with Mist and Fog 62 16.7 61 16.1 96 96 Calm 30.01 1016 2 3 0.00 0.00
5:51 am 05:51 Clear with Mist and Fog 63 17 61 16 94 94 Calm 30.01 1016 5 8 0.00 0.00
5:53 am 05:53 Clear with Mist and Fog 62 16.7 60 15.6 93 93 Calm 30.00 1016 6 10 0.00 0.00
6:28 am 06:28 Clear with Mist and Fog 60 15.6 59 15 96 96 Calm 30.02 1017 2 2 0.00 0.00
6:38 am 06:38 Clear with Mist and Fog 62 16.7 61 16.1 96 96 Calm 30.02 1017 4 6 0.00 0.00
6:53 am 06:53 Clear 60 15.6 59 15 96 96 Calm 30.01 1016 8 13 0.00 0.00
7:05 am 07:05 Clear with Mist and Fog 60 15.6 59 15 96 96 Calm 30.02 1017 2 3 0.00 0.00
7:07 am 07:07 Mostly Cloudy with Mist and Fog 60 15.6 59 15 96 96 Calm 30.02 1017 1 2 0.00 0.00
7:14 am 07:14 Mostly Cloudy with Fog 61 16.1 60 15.6 97 97 Calm 30.02 1017 1 1 0.00 0.00
7:24 am 07:24 Mostly Clear with Mist and Fog 60 15.6 59 15 96 96 Calm 30.03 1017 1 2 0.00 0.00
7:28 am 07:28 Mostly Clear with Mist and Fog 61 16.1 59 15 93 93 Calm 30.03 1017 3 5 0.00 0.00
7:53 am 07:53 Partly Cloudy with Mist and Fog 60 15.6 59 15 96 96 Calm 30.04 1017 5 8 0.00 0.00
8:53 am 08:53 Mostly Cloudy 65 18.3 62 16.7 90 90 Calm 30.05 1018 7 11 0.00 0.00
9:53 am 09:53 Mostly Cloudy 71 21.7 65 18.3 81 81 Calm 30.05 1018 9 14 0.00 0.00
10:53 am 10:53 Partly Cloudy 77 25 66 18.9 69 69 Calm 30.05 1018 10 16 0.00 0.00
11:53 am 11:53 Sunny 80 26.7 65 18.3 60 60 Calm 30.05 1018 10 16 0.00 0.00
12:53 pm 12:53 Sunny 82 27.8 65 18.3 56 56 VRB 6 9 30.04 1017 10 16 0.00 0.00
1:53 pm 13:53 Sunny 84 28.9 64 17.8 51 51 Calm 30.04 1017 10 16 0.00 0.00
2:53 pm 14:53 Partly Cloudy 86 30 65 18.3 49 49 NNW 6 9 30.01 1016 10 16 0.00 0.00
3:53 pm 15:53 Sunny 86 30 64 17.8 48 48 Calm 30.00 1016 10 16 0.00 0.00
4:53 pm 16:53 Sunny 85 29.4 64 17.8 50 50 NW 3 6 29.99 1016 10 16 0.00 0.00
5:53 pm 17:53 Partly Cloudy 85 29.4 65 18.3 51 51 VRB 5 7 29.99 1016 10 16 0.00 0.00
6:53 pm 18:53 Sunny 82 27.8 65 18.3 56 56 Calm 30.01 1016 10 16 0.00 0.00
7:53 pm 19:53 Clear 73 22.8 67 19.4 81 81 Calm 30.01 1016 10 16 0.00 0.00
8:53 pm 20:53 Clear 69 20.6 66 18.9 90 90 Calm 30.03 1017 10 16 0.00 0.00
9:53 pm 21:53 Clear 69 20.6 66 18.9 90 90 Calm 30.04 1017 10 16 0.00 0.00
10:53 pm 22:53 Clear 67 19.4 66 18.9 97 97 Calm 30.06 1018 9 14 0.00 0.00
11:53 pm 23:53 Clear 67 19.4 64 17.8 91 91 Calm 30.07 1018 8 13 0.00 0.00

Powered by AerisWeather